www.pogodaiklimat.ru

Погода и климат >> Архив погоды >> Мексика >> Monterrey


ПОГОДА в Monterrey

  • Прогноз погоды в Monterrey
  • Монитор погоды в Monterrey
  • Климат города

АРХИВ ПОГОДЫ в Monterrey

Время (UTC), дата Ветер
(напр.,м/с)
 
Видим.   Явления Облачность Т
(С)
Тd
(С)
f
(%)
Тe
(С)
Тes
(С)
Комфортность P
(гПа)
Po
(гПа)
Тmin
(С)
Tmax
(С)
R
(мм)
R24
(мм)
S
(см)
12 12.12 СЗ 1 1000 м дым ясно +11.4 +10.7 95 +11 +11 1016.1 957.8 +11.0 +18.0
15 12.12 ЮВ 1 1000 м мгла 6/6
[Cu hum]
+14.0 +10.6 80 +14 +15 1016.4 958.0
18 12.12 В 2 1000 м мгла 9/0
[As trans]
+16.6 +12.7 78 +17 +21 1015.1 956.8 +11.0 +18.6
21 12.12 В 2 1000 м мгла {туман} 5/0
[As trans]
+21.8 +14.0 61 +25 +29 комфорт 1011.2 953.6
00 13.12 В 2 1000 м слабая морось 10/5 300 м
[Sc As trans]
+17.6 +15.1 85 +18 +18 1010.8 953.6 0.0
06 13.12 ЮВ 2 800 м слабая морось {туман} 8/8 100 м
[St]
+16.6 +15.7 94 +17 +17 1010.2 953.3 2
09 13.12 Ю 1 1000 м слабая морось 10/10 120 м
[Frnb]
+16.2 +15.3 94 +17 +17 1010.0 953.0 1
12 13.12 В 1 1000 м дым ясно +14.0 +13.3 96 +14 +14 1009.3 952.0 +13.4 +24.0
21 13.12 СЗ 7 5000 м ясно +24.8 +9.6 38 +26 +27 жарко 1007.7 951.1
00 14.12 З 6 5000 м 4/4 2000 м
[Sc]
+23.8 +0.4 21 +23 +23 комфорт 1010.4 954.0 +13.4 +28.4
03 14.12 СЗ 5 1000 м 4/4 1500 м
[Sc]
+17.8 +2.0 35 +17 +17 1015.8 959.3
09 14.12 СЗ 3 1000 м дым ясно +13.2 +3.3 51 +12 +12 1019.6 962.0
12 14.12 СЗ 3 1000 м дым ясно +12.8 +1.7 47 +12 +12 1020.1 962.0 +12.8 +28.4
09 15.12 С 1 1000 м дым ясно +11.0 +4.7 65 +11 +11 1023.8 965.5
12 15.12 ЮВ 1 1000 м дым ясно +8.0 +3.9 75 +7 +7 1024.9 966.0 +8.0 +20.8
18 15.12 В 2 5000 м ясно +17.8 +0.8 32 +18 +27 1026.3 967.0 +8.0 +19.2
21 15.12 В 3 5000 м ясно +19.4 +1.1 29 +20 +25 1022.4 963.8
00 16.12 ЮВ 1 5000 м 4/3
[Cb calv Ac und]
+17.6 +5.4 45 +19 +19 1022.4 964.3 +8.0 +23.0
03 16.12 СВ 1 1000 м ясно +14.2 +7.3 63 +15 +15 1024.1 966.1
12 16.12 ЮЗ 1 1000 м дым ясно +7.4 +3.2 75 +7 +7 1025.2 966.1 +7.0 +23.0
21 16.12 В 2 5000 м 10/0
[As trans]
+19.0 +2.2 33 +20 +22 1022.4 963.7
00 17.12 В 1 4000 м мгла {туман} 10/0
[As op]
+16.8 +6.2 50 +18 +18 1022.8 964.6 +7.0 +21.4
21 17.12 В 3 5000 м 5/0
[Ac trans]
+20.0 +2.7 32 +21 +24 комфорт 1019.4 961.4
00 18.12 В 3 5000 м 4/0
[Ac trans]
+19.4 +8.7 50 +20 +20 1018.1 960.6 +10.0 +23.0
12 18.12 З 1 1000 м дым ясно +10.4 +8.6 89 +10 +10 1016.8 958.6 +10.0 +23.0
21 18.12 В 3 2000 м мгла {туман} 10/0
[Cs]
+18.4 +11.5 64 +19 +23 1012.4 954.4
00 19.12 В 2 2000 м мгла {туман} 5/0
[Cs]
+17.0 +11.0 68 +17 +17 1011.2 953.7 +10.0 +20.2

 

Местоположение метеостанции Monterrey (Мексика): широта 25.73 долгота -100.30 высота над уровнем моря 515 м.

В архиве по умолчанию представлена погода в Monterrey за последнюю неделю. Архивные данные за месяц целиком и за предыдущие месяцы, начиная с января 2011 года, Вы можете получить, выбрав интересующий диапазон дат из раскрывающегося списка и нажав кнопку "Ввод!".


*Определитесь, кто Вы:
робот инопланетянин человек

Внимание! Время в таблицах - всемирное. Для получения местного времени необходимо прибавить поправку, которая в Monterrey равна -6 ч.

Смотрите также архив погоды в соседних городах и на ближайших метеорологических станциях:

Погода в Saltillo (Мексика) (81 км)
Погода в Monclova (Мексика) (168 км)
Погода в Ciudad Victoria (Мексика) (252 км)
Погода в Soto La Marina (Мексика) (304 км)
Погода в Torreon (Мексика) (312 км)
Погода в Piedras Negras (Мексика) (331 км)
Погода в Zacatecas (Мексика) (397 км)
Погода в San Luis Potosi (Мексика) (400 км)
Погода в Sombrerete (Мексика) (407 км)
Погода в Rio Verde (Мексика) (424 км)

Пояснения к столбцам:

Ветер - указаны скорость ветра в м/с - средняя за 10 мин, порывы в срок и между сроками (в фигурных скобках) и направление, откуда дует ветер: С - северный, СВ - северо-восточный, В - восточный, ЮВ - юго-восточный, Ю - южный, ЮЗ - юго-западный, З - западный, СЗ - северо-западный.
Видимость - горизонтальная дальность видимости в метрах или километрах. При видимости от 1 до 10 км при отсутствии осадков обычно наблюдается дымка, при ухудшении видимости до 1 км и менее - туман. В сухую погоду видимость может ухудшаться дымом, пылью или мглою.
Явления - указаны атмосферные явления, наблюдавшиеся в срок или в последний час перед сроком; фигурными скобками обозначены явления, наблюдавшиеся между сроками (за 1-3 часа до срока); квадратными скобками обозначены град или гололедные отложения с указанием их диаметра в мм.
Облачность - указаны через наклонную черту общая и нижняя облачность в баллах и высота нижней границы облаков в метрах; квадратными скобками обозначены формы облаков: Ci - перистые, Cs - перисто-слоистые, Cc - перисто-кучевые, Ac - высококучевые, As - высокослоистые, Sc - слоисто-кучевые, Ns - слоисто-дождевые, Cu - кучевые, Cb - кучево-дождевые. Подробнее классификацию облаков см. в Атласе облаков (PDF).
T - Температура воздуха - температура, измеренная на высоте 2 м над землей.
Td - Температура точки росы - температура, при понижении до которой содержащийся в воздухе водяной пар достигнет насыщения.
f - Относительная влажность воздуха - влажноcть воздуха, измеренная на высоте 2 м над землей.
Te - Эффективная температура - температура, которую ощущает одетый по сезону человек в тени. Характеристика душности погоды. При расчете учитывается влияние влажности воздуха и скорости ветра на теплоощущения человека.
Tes - Эффективная температура на солнце - температура, которую ощущает человек, с поправкой на солнечный нагрев. Характеристика знойности погоды. Зависит от высоты солнца над горизонтом, облачности и скорости ветра. Ночью, в пасмурную погоду, а также при ветре 12 м/с и более поправка равна нулю.
P - Атмосферное давление - приведенное к уровню моря атмосферное давление.
Po - Атмосферное давление - измеренное на уровне метеостанции атмосферное давление.
Tmin - Минимальная температура - минимум температуры воздуха на высоте 2 м над землей.
Tmax - Максимальная температура - максимум температуры воздуха на высоте 2 м над землей.
R - Количество осадков - Количество выпавших осадков за период времени, мм. При наведении курсора мыши на число - период времени, за который выпало указанное количество осадков.
R24 - Количество осадков - Количество выпавших осадков за 24 часа, мм.
S - Снежный покров - Высота снежного покрова, см. При наведении курсора мыши на число - состояние снежного покрова и степень покрытия местности в баллах.